"read_dt","SO2 (ppb)","flags","PMT voltage (V)","lamp voltage (V)","lamp intensity (Hz)","internal temp (C)","react chamber temp (C)","sample flow (l/min)","pres (mmHg)","SO2 bkg (ppb)","SO2 coefficient"
2014-03-13 00:00:00,5517E-2,5C000490,-0724,1301,7490,026.9,045.3,0.129,750.6,01.17,0.508
2014-03-13 00:01:00,5488E-2,5C000490,-0724,1302,7521,026.9,045.3,0.129,750.6,01.17,0.508
2014-03-13 00:02:00,5474E-2,5C000490,-0724,1304,7456,026.9,045.3,0.129,750.6,01.17,0.508
2014-03-13 00:03:00,5540E-2,5C000490,-0724,1306,7485,026.9,045.3,0.129,750.7,01.17,0.508
2014-03-13 00:04:00,5472E-2,5C000490,-0724,1306,7580,026.9,045.3,0.129,750.7,01.17,0.508
2014-03-13 00:05:00,5465E-2,5C000490,-0724,1308,7534,026.9,045.3,0.129,750.7,01.17,0.508
2014-03-13 00:06:00,5522E-2,5C000490,-0724,1310,7492,026.9,045.3,0.129,750.6,01.17,0.508
2014-03-13 00:07:00,5478E-2,5C000490,-0724,1309,7368,026.9,045.3,0.129,750.6,01.17,0.508
2014-03-13 00:08:00,5490E-2,5C000490,-0724,1312,7526,026.9,045.3,0.129,750.6,01.17,0.508
2014-03-13 00:09:00,5554E-2,5C000490,-0724,1311,7453,026.9,045.3,0.129,750.6,01.17,0.508
2014-03-13 00:10:00,5536E-2,5C000490,-0724,1309,7437,026.9,045.3,0.129,750.6,01.17,0.508
2014-03-13 00:11:00,5586E-2,5C000490,-0724,1310,7384,026.9,045.3,0.129,750.6,01.17,0.508
2014-03-13 00:12:00,5558E-2,5C000490,-0724,1310,7363,026.9,045.3,0.129,750.7,01.17,0.508
2014-03-13 00:13:00,5530E-2,5C000490,-0724,1310,7373,026.9,045.3,0.129,750.6,01.17,0.508
2014-03-13 00:14:00,5608E-2,5C000490,-0724,1311,7449,026.9,045.3,0.129,750.6,01.17,0.508
2014-03-13 00:15:00,5565E-2,5C000490,-0724,1313,7427,026.9,045.2,0.129,750.6,01.17,0.508
2014-03-13 00:16:00,5583E-2,5C000490,-0724,1312,7362,026.8,045.3,0.129,750.6,01.17,0.508
2014-03-13 00:17:00,5534E-2,5C000490,-0724,1313,7454,026.8,045.3,0.129,750.6,01.17,0.508
2014-03-13 00:18:00,5528E-2,5C000490,-0724,1314,7456,026.8,045.3,0.129,750.4,01.17,0.508
2014-03-13 00:19:00,5599E-2,5C000490,-0724,1315,7287,026.8,045.3,0.129,750.5,01.17,0.508
2014-03-13 00:20:00,5557E-2,5C000490,-0724,1317,7477,026.8,045.3,0.129,750.5,01.17,0.508
2014-03-13 00:21:00,5611E-2,5C000490,-0724,1318,7406,026.8,045.3,0.129,750.5,01.17,0.508
2014-03-13 00:22:00,5591E-2,5C000490,-0724,1319,7378,026.8,045.3,0.129,750.5,01.17,0.508
2014-03-13 00:23:00,5567E-2,5C000490,-0724,1320,7373,026.8,045.3,0.129,750.4,01.17,0.508
2014-03-13 00:24:00,5611E-2,5C000490,-0724,1322,7334,026.9,045.3,0.129,750.4,01.17,0.508
2014-03-13 00:25:00,5593E-2,5C000490,-0724,1324,7352,026.8,045.3,0.129,750.4,01.17,0.508
2014-03-13 00:26:00,5577E-2,5C000490,-0724,1324,7295,026.8,045.3,0.129,750.4,01.17,0.508
2014-03-13 00:27:00,5576E-2,5C000490,-0724,1327,7180,026.8,045.3,0.129,750.4,01.17,0.508
2014-03-13 00:28:00,5581E-2,5C000490,-0724,1326,7309,026.8,045.3,0.129,750.4,01.17,0.508
2014-03-13 00:29:00,5547E-2,5C000490,-0724,1327,7199,026.8,045.3,0.129,750.4,01.17,0.508
2014-03-13 00:30:00,5619E-2,5C000490,-0724,1327,7142,026.8,045.3,0.129,750.4,01.17,0.508
2014-03-13 00:31:00,5585E-2,5C000490,-0724,1329,7286,026.8,045.3,0.129,750.3,01.17,0.508
2014-03-13 00:32:00,5584E-2,5C000490,-0724,1331,7260,026.8,045.3,0.129,750.4,01.17,0.508
2014-03-13 00:33:00,5622E-2,5C000490,-0724,1331,7368,026.8,045.3,0.129,750.4,01.17,0.508
2014-03-13 00:34:00,5601E-2,5C000490,-0724,1331,7280,026.8,045.2,0.129,750.4,01.17,0.508
2014-03-13 00:35:00,5609E-2,5C000490,-0724,1331,7276,026.8,045.3,0.129,750.4,01.17,0.508
2014-03-13 00:36:00,5628E-2,5C000490,-0724,1330,7329,026.8,045.3,0.129,750.4,01.17,0.508
2014-03-13 00:37:00,5594E-2,5C000490,-0724,1333,7203,026.8,045.3,0.129,750.4,01.17,0.508
2014-03-13 00:38:00,5657E-2,5C000490,-0724,1333,7320,026.8,045.2,0.129,750.4,01.17,0.508
2014-03-13 00:39:00,5606E-2,5C000490,-0724,1334,7171,026.8,045.3,0.129,750.4,01.17,0.508
2014-03-13 00:40:00,5675E-2,5C000490,-0724,1335,7246,026.7,045.2,0.129,750.4,01.17,0.508
2014-03-13 00:41:00,5620E-2,5C000490,-0724,1337,7250,026.8,045.3,0.130,750.5,01.17,0.508
2014-03-13 00:42:00,5632E-2,5C000490,-0724,1339,7166,026.8,045.3,0.129,750.6,01.17,0.508
2014-03-13 00:43:00,5761E-2,5C000490,-0724,1343,7103,026.7,045.3,0.129,750.5,01.17,0.508
2014-03-13 00:44:00,5730E-2,5C000490,-0724,1344,7053,026.7,045.3,0.129,750.5,01.17,0.508
2014-03-13 00:45:00,5725E-2,5C000490,-0724,1348,7079,026.8,045.2,0.129,750.5,01.17,0.508
2014-03-13 00:46:00,5697E-2,5C000490,-0724,1348,6937,026.8,045.2,0.130,750.5,01.17,0.508
2014-03-13 00:47:00,5707E-2,5C000490,-0724,1348,7092,026.8,045.3,0.130,750.6,01.17,0.508
2014-03-13 00:48:00,5723E-2,5C000490,-0724,1350,7145,026.7,045.3,0.130,750.6,01.17,0.508
2014-03-13 00:49:00,5731E-2,5C000490,-0724,1350,7031,026.8,045.3,0.130,750.5,01.17,0.508
2014-03-13 00:50:00,5740E-2,5C000490,-0724,1350,7054,026.8,045.3,0.130,750.6,01.17,0.508
2014-03-13 00:51:00,5799E-2,5C000490,-0724,1351,6957,026.8,045.3,0.130,750.6,01.17,0.508
2014-03-13 00:52:00,5696E-2,5C000490,-0724,1350,7050,026.8,045.3,0.129,750.6,01.17,0.508
2014-03-13 00:53:00,5737E-2,5C000490,-0724,1352,7054,026.8,045.3,0.130,750.6,01.17,0.508
2014-03-13 00:54:00,5716E-2,5C000490,-0724,1353,7039,026.8,045.3,0.129,750.6,01.17,0.508
2014-03-13 00:55:00,5749E-2,5C000490,-0724,1353,7017,026.8,045.3,0.130,750.7,01.17,0.508
2014-03-13 00:56:00,6004E-2,5C000490,-0724,1354,7039,026.8,045.3,0.130,750.7,01.17,0.508
2014-03-13 00:57:00,6009E-2,5C000490,-0724,1354,7046,026.8,045.3,0.130,750.7,01.17,0.508
2014-03-13 00:58:00,5961E-2,5C000490,-0724,1355,6962,026.8,045.3,0.130,750.7,01.17,0.508
2014-03-13 00:59:00,6032E-2,5C000490,-0724,1356,6890,026.8,045.3,0.130,750.7,01.17,0.508
2014-03-13 01:00:00,5976E-2,5C000490,-0724,1358,6961,026.8,045.3,0.130,750.7,01.17,0.508
2014-03-13 01:01:00,5956E-2,5C000490,-0724,1359,6979,026.8,045.3,0.130,750.7,01.17,0.508
2014-03-13 01:02:00,5935E-2,5C000490,-0724,1341,7291,026.8,045.3,0.129,750.7,01.17,0.508
2014-03-13 01:03:00,5886E-2,5C000490,-0724,1333,7289,026.8,045.3,0.129,750.7,01.17,0.508
2014-03-13 01:04:00,5951E-2,5C000490,-0724,1331,7210,026.8,045.3,0.129,750.7,01.17,0.508
2014-03-13 01:05:00,5940E-2,5C000490,-0724,1332,7287,026.9,045.3,0.129,750.8,01.17,0.508
2014-03-13 01:06:00,5908E-2,5C000490,-0724,1334,7091,026.9,045.3,0.129,750.7,01.17,0.508
2014-03-13 01:07:00,5867E-2,5C000490,-0724,1334,7233,026.9,045.3,0.129,750.8,01.17,0.508
2014-03-13 01:08:00,5883E-2,5C000490,-0724,1333,7290,026.9,045.3,0.129,750.7,01.17,0.508
2014-03-13 01:09:00,5880E-2,5C000490,-0724,1333,7314,026.9,045.3,0.129,750.7,01.17,0.508
2014-03-13 01:10:00,5858E-2,5C000490,-0724,1333,7147,026.9,045.3,0.129,750.7,01.17,0.508
2014-03-13 01:11:00,5926E-2,5C000490,-0724,1335,7150,026.9,045.3,0.129,750.7,01.17,0.508
2014-03-13 01:12:00,5851E-2,5C000490,-0724,1337,7111,026.9,045.3,0.129,750.8,01.17,0.508
2014-03-13 01:13:00,5909E-2,5C000490,-0724,1337,7190,026.9,045.3,0.129,750.7,01.17,0.508
2014-03-13 01:14:00,5906E-2,5C000490,-0724,1340,7081,026.9,045.3,0.129,750.6,01.17,0.508
2014-03-13 01:15:00,5839E-2,5C000490,-0724,1345,7039,026.9,045.2,0.129,750.6,01.17,0.508
2014-03-13 01:16:00,5871E-2,5C000490,-0724,1347,7063,026.9,045.3,0.129,750.7,01.17,0.508
2014-03-13 01:17:00,5848E-2,5C000490,-0724,1351,7053,026.9,045.3,0.129,750.5,01.17,0.508
2014-03-13 01:18:00,5958E-2,5C000490,-0724,1354,6960,026.9,045.2,0.129,750.5,01.17,0.508
2014-03-13 01:19:00,5895E-2,5C000490,-0724,1357,6985,026.9,045.2,0.129,750.5,01.17,0.508
2014-03-13 01:20:00,5997E-2,5C000490,-0724,1359,6914,026.9,045.3,0.129,750.5,01.17,0.508
2014-03-13 01:21:00,5917E-2,5C000490,-0724,1361,6881,027.0,045.3,0.129,750.5,01.17,0.508
2014-03-13 01:22:00,5915E-2,5C000490,-0724,1363,6935,027.0,045.3,0.129,750.4,01.17,0.508
2014-03-13 01:23:00,5930E-2,5C000490,-0724,1365,6822,027.0,045.3,0.129,750.4,01.17,0.508
2014-03-13 01:24:00,5859E-2,5C000490,-0724,1366,6833,027.0,045.2,0.129,750.5,01.17,0.508
2014-03-13 01:25:00,5936E-2,5C000490,-0724,1366,6851,026.9,045.3,0.129,750.4,01.17,0.508
2014-03-13 01:26:00,5993E-2,5C000490,-0724,1367,6886,027.0,045.3,0.129,750.4,01.17,0.508
2014-03-13 01:27:00,5920E-2,5C000490,-0724,1368,6793,027.0,045.3,0.129,750.5,01.17,0.508
2014-03-13 01:28:00,5853E-2,5C000490,-0724,1368,6718,027.0,045.3,0.129,750.5,01.17,0.508
2014-03-13 01:29:00,5885E-2,5C000490,-0724,1370,6790,027.0,045.3,0.129,750.5,01.17,0.508
2014-03-13 01:30:00,5932E-2,5C000490,-0724,1371,6719,027.0,045.3,0.129,750.4,01.17,0.508
2014-03-13 01:31:00,6076E-2,5C000490,-0724,1371,6625,027.0,045.2,0.129,750.4,01.17,0.508
2014-03-13 01:32:00,5969E-2,5C000490,-0724,1371,6727,027.0,045.3,0.129,750.4,01.17,0.508
2014-03-13 01:33:00,5996E-2,5C000490,-0724,1372,6795,027.0,045.3,0.129,750.5,01.17,0.508
2014-03-13 01:34:00,6020E-2,5C000490,-0724,1372,6699,027.0,045.3,0.129,750.5,01.17,0.508
2014-03-13 01:35:00,5989E-2,5C000490,-0724,1372,6675,027.0,045.3,0.129,750.6,01.17,0.508
2014-03-13 01:36:00,6020E-2,5C000490,-0724,1372,6758,027.0,045.3,0.129,750.7,01.17,0.508
2014-03-13 01:37:00,5495E-2,5C000490,-0724,1308,8104,027.0,045.3,0.129,750.7,01.17,0.508
2014-03-13 01:38:00,4903E-2,5C000490,-0724,1268,7973,027.0,045.3,0.129,750.6,01.17,0.508
2014-03-13 01:39:00,4809E-2,5C000490,-0724,1262,7970,027.0,045.3,0.129,750.7,01.17,0.508
2014-03-13 01:40:00,4877E-2,5C000490,-0724,1263,7796,027.0,045.3,0.129,750.7,01.17,0.508
2014-03-13 01:41:00,4865E-2,5C000490,-0724,1264,7908,027.0,045.3,0.129,750.7,01.17,0.508
2014-03-13 01:42:00,4850E-2,5C000490,-0724,1265,7940,027.0,045.3,0.129,750.7,01.17,0.508
2014-03-13 01:43:00,4846E-2,5C000490,-0724,1267,7904,027.0,045.3,0.129,750.7,01.17,0.508
2014-03-13 01:44:00,4865E-2,5C000490,-0724,1269,7953,027.0,045.3,0.129,750.7,01.17,0.508
2014-03-13 01:45:00,4885E-2,5C000490,-0724,1269,7894,027.0,045.3,0.129,750.7,01.17,0.508
2014-03-13 01:46:00,4880E-2,5C000490,-0724,1270,7720,027.0,045.3,0.129,750.7,01.17,0.508
2014-03-13 01:47:00,4902E-2,5C000490,-0724,1271,7829,027.0,045.3,0.129,750.7,01.17,0.508
2014-03-13 01:48:00,4879E-2,5C000490,-0724,1272,7871,027.0,045.3,0.129,750.6,01.17,0.508
2014-03-13 01:49:00,4878E-2,5C000490,-0724,1273,7849,027.0,045.3,0.129,750.6,01.17,0.508
2014-03-13 01:50:00,4939E-2,5C000490,-0724,1274,7821,027.0,045.3,0.128,750.6,01.17,0.508
2014-03-13 01:51:00,4885E-2,5C000490,-0724,1275,7774,027.1,045.3,0.129,750.6,01.17,0.508
2014-03-13 01:52:00,4903E-2,5C000490,-0724,1277,7858,027.1,045.3,0.129,750.6,01.17,0.508
2014-03-13 01:53:00,4861E-2,5C000490,-0724,1278,7657,027.1,045.3,0.129,750.6,01.17,0.508
2014-03-13 01:54:00,4914E-2,5C000490,-0724,1279,7765,027.1,045.3,0.129,750.6,01.17,0.508
2014-03-13 01:55:00,4910E-2,5C000490,-0724,1281,7724,027.1,045.3,0.129,750.6,01.17,0.508
2014-03-13 01:56:00,4865E-2,5C000490,-0724,1282,7653,027.1,045.3,0.128,750.6,01.17,0.508
2014-03-13 01:57:00,4851E-2,5C000490,-0724,1283,7721,027.1,045.3,0.129,750.6,01.17,0.508
2014-03-13 01:58:00,4840E-2,5C000490,-0724,1284,7712,027.1,045.3,0.128,750.6,01.17,0.508
2014-03-13 01:59:00,4875E-2,5C000490,-0724,1286,7605,027.1,045.3,0.128,750.6,01.17,0.508
2014-03-13 02:00:00,4899E-2,5C000490,-0724,1286,7747,027.1,045.3,0.128,750.7,01.17,0.508
2014-03-13 02:01:00,4858E-2,5C000490,-0724,1287,7678,027.1,045.3,0.128,750.7,01.17,0.508
2014-03-13 02:02:00,4894E-2,5C000490,-0724,1290,7713,027.1,045.3,0.128,750.7,01.17,0.508
2014-03-13 02:03:00,4911E-2,5C000490,-0724,1289,7706,027.1,045.3,0.128,750.6,01.17,0.508
2014-03-13 02:04:00,4939E-2,5C000490,-0724,1290,7565,027.1,045.3,0.128,750.7,01.17,0.508
2014-03-13 02:05:00,4867E-2,5C000490,-0724,1290,7714,027.2,045.3,0.128,750.7,01.17,0.508
2014-03-13 02:06:00,4853E-2,5C000490,-0724,1294,7725,027.2,045.3,0.128,750.7,01.17,0.508
2014-03-13 02:07:00,4961E-2,5C000490,-0724,1294,7651,027.2,045.3,0.128,750.7,01.17,0.508
2014-03-13 02:08:00,4930E-2,5C000490,-0724,1296,7701,027.2,045.3,0.128,750.8,01.17,0.508
2014-03-13 02:09:00,5193E-2,5C000490,-0724,1326,6886,027.2,045.3,0.128,750.7,01.17,0.508
2014-03-13 02:10:00,5427E-2,5C000490,-0724,1356,6711,027.2,045.3,0.128,750.7,01.17,0.508
2014-03-13 02:11:00,5412E-2,5C000490,-0724,1365,6883,027.2,045.3,0.128,750.8,01.17,0.508
2014-03-13 02:12:00,5399E-2,5C000490,-0724,1368,6751,027.3,045.3,0.128,750.8,01.17,0.508
2014-03-13 02:13:00,5489E-2,5C000490,-0724,1370,6678,027.2,045.3,0.128,750.7,01.17,0.508
2014-03-13 02:14:00,5456E-2,5C000490,-0724,1371,6797,027.2,045.3,0.128,750.7,01.17,0.508
2014-03-13 02:15:00,5453E-2,5C000490,-0724,1372,6716,027.3,045.3,0.128,750.8,01.17,0.508
2014-03-13 02:16:00,5416E-2,5C000490,-0724,1372,6732,027.3,045.3,0.128,750.9,01.17,0.508
2014-03-13 02:17:00,5428E-2,5C000490,-0724,1373,6686,027.3,045.3,0.128,750.8,01.17,0.508
2014-03-13 02:18:00,5394E-2,5C000490,-0724,1373,6565,027.3,045.3,0.128,750.9,01.17,0.508
2014-03-13 02:19:00,5430E-2,5C000490,-0724,1374,6638,027.3,045.3,0.128,750.9,01.17,0.508
2014-03-13 02:20:00,5381E-2,5C000490,-0724,1374,6607,027.3,045.3,0.128,750.9,01.17,0.508
2014-03-13 02:21:00,5442E-2,5C000490,-0724,1374,6574,027.3,045.3,0.127,750.8,01.17,0.508
2014-03-13 02:22:00,5428E-2,5C000490,-0724,1374,6491,027.4,045.3,0.127,750.9,01.17,0.508
2014-03-13 02:23:00,5372E-2,5C000490,-0724,1375,6471,027.4,045.3,0.127,750.9,01.17,0.508
2014-03-13 02:24:00,5404E-2,5C000490,-0724,1375,6415,027.4,045.3,0.127,750.8,01.17,0.508
2014-03-13 02:25:00,5394E-2,5C000490,-0724,1375,6493,027.4,045.3,0.127,750.9,01.17,0.508
2014-03-13 02:26:00,5382E-2,5C000490,-0724,1375,6541,027.4,045.3,0.127,750.9,01.17,0.508
2014-03-13 02:27:00,5342E-2,5C000490,-0724,1375,6512,027.4,045.3,0.127,751.0,01.17,0.508
2014-03-13 02:28:00,5424E-2,5C000490,-0724,1375,6471,027.4,045.3,0.127,750.9,01.17,0.508
2014-03-13 02:29:00,5343E-2,5C000490,-0724,1375,6458,027.4,045.3,0.127,750.8,01.17,0.508
2014-03-13 02:30:00,5365E-2,5C000490,-0724,1375,6420,027.4,045.3,0.127,750.8,01.17,0.508
2014-03-13 02:31:00,5369E-2,5C000490,-0724,1375,6402,027.5,045.3,0.127,750.9,01.17,0.508
2014-03-13 02:32:00,5390E-2,5C000490,-0724,1375,6388,027.5,045.3,0.127,750.9,01.17,0.508
2014-03-13 02:33:00,5346E-2,5C000490,-0724,1375,6423,027.5,045.3,0.127,750.9,01.17,0.508
2014-03-13 02:34:00,5423E-2,5C000490,-0724,1376,6375,027.5,045.3,0.127,750.9,01.17,0.508
2014-03-13 02:35:00,5376E-2,5C000490,-0724,1376,6372,027.5,045.3,0.127,750.8,01.17,0.508
2014-03-13 02:36:00,5430E-2,5C000490,-0724,1376,6362,027.5,045.3,0.127,750.8,01.17,0.508
2014-03-13 02:37:00,5373E-2,5C000490,-0724,1376,6274,027.5,045.3,0.127,750.8,01.17,0.508
2014-03-13 02:38:00,5442E-2,5C000490,-0724,1376,6364,027.5,045.3,0.127,750.8,01.17,0.508
2014-03-13 02:39:00,5465E-2,5C000490,-0724,1376,6328,027.4,045.3,0.127,750.8,01.17,0.508
2014-03-13 02:40:00,5386E-2,5C000490,-0724,1376,6228,027.4,045.3,0.127,750.8,01.17,0.508
2014-03-13 02:41:00,5407E-2,5C000490,-0724,1376,6273,027.4,045.3,0.127,750.8,01.17,0.508
"read_dt","SO2 (ppb)","flags","PMT voltage (V)","lamp voltage (V)","lamp intensity (Hz)","internal temp (C)","react chamber temp (C)","sample flow (l/min)","pres (mmHg)","SO2 bkg (ppb)","SO2 coefficient"
2014-03-13 02:43:00,5410E-2,5C000490,-0724,1376,6230,027.4,045.3,0.127,750.8,01.17,0.508
2014-03-13 02:44:00,5388E-2,5C000490,-0724,1376,6284,027.4,045.3,0.127,750.8,01.17,0.508
2014-03-13 02:45:00,5414E-2,5C000490,-0724,1376,6267,027.4,045.3,0.127,750.8,01.17,0.508
2014-03-13 02:46:00,5413E-2,5C000490,-0724,1376,6260,027.4,045.3,0.127,750.7,01.17,0.508
2014-03-13 02:47:00,5360E-2,5C000490,-0724,1376,6166,027.4,045.3,0.127,750.8,01.17,0.508
2014-03-13 02:48:00,5404E-2,5C000490,-0724,1376,6158,027.3,045.3,0.127,750.8,01.17,0.508
2014-03-13 02:49:00,5437E-2,5C000490,-0724,1376,6180,027.3,045.3,0.127,750.7,01.17,0.508
2014-03-13 02:50:00,5419E-2,5C000490,-0724,1376,6273,027.3,045.3,0.127,750.7,01.17,0.508
2014-03-13 02:51:00,5452E-2,5C000490,-0724,1376,6227,027.3,045.3,0.127,750.7,01.17,0.508
2014-03-13 02:52:00,5475E-2,5C000490,-0724,1376,6113,027.3,045.3,0.127,750.7,01.17,0.508
2014-03-13 02:53:00,5483E-2,5C000490,-0724,1376,6147,027.3,045.3,0.127,750.7,01.17,0.508
2014-03-13 02:54:00,5428E-2,5C000490,-0724,1376,6182,027.3,045.3,0.127,750.7,01.17,0.508
2014-03-13 02:55:00,5465E-2,5C000490,-0724,1376,6143,027.3,045.3,0.127,750.6,01.17,0.508
2014-03-13 02:56:00,5449E-2,5C000490,-0724,1376,6081,027.3,045.3,0.127,750.7,01.17,0.508
2014-03-13 02:57:00,5417E-2,5C000490,-0724,1376,6091,027.3,045.3,0.127,750.7,01.17,0.508
2014-03-13 02:58:00,5426E-2,5C000490,-0724,1376,6062,027.3,045.3,0.127,750.7,01.17,0.508
2014-03-13 02:59:00,5453E-2,5C000490,-0724,1376,6108,027.3,045.3,0.127,750.7,01.17,0.508
2014-03-13 03:00:00,5484E-2,5C000490,-0724,1376,6059,027.4,045.3,0.127,750.7,01.17,0.508
2014-03-13 03:01:00,5451E-2,5C000490,-0724,1376,6067,027.4,045.3,0.127,750.7,01.17,0.508
2014-03-13 03:02:00,5512E-2,5C000490,-0724,1376,6058,027.4,045.3,0.127,750.7,01.17,0.508
2014-03-13 03:03:00,5463E-2,5C000490,-0724,1376,6054,027.4,045.3,0.127,750.7,01.17,0.508
2014-03-13 03:04:00,5473E-2,5C000490,-0724,1376,6164,027.4,045.3,0.127,750.7,01.17,0.508
2014-03-13 03:05:00,5510E-2,5C000490,-0724,1376,6046,027.4,045.3,0.127,750.7,01.17,0.508
2014-03-13 03:06:00,5491E-2,5C000490,-0724,1376,6039,027.4,045.3,0.127,750.7,01.17,0.508
2014-03-13 03:07:00,5514E-2,5C000490,-0724,1376,6056,027.4,045.3,0.127,750.7,01.17,0.508
2014-03-13 03:08:00,5514E-2,5C000490,-0724,1376,6046,027.4,045.3,0.127,750.6,01.17,0.508
2014-03-13 03:09:00,5560E-2,5C000490,-0724,1376,6069,027.4,045.3,0.127,750.7,01.17,0.508
2014-03-13 03:10:00,5521E-2,5C000490,-0724,1376,6083,027.4,045.3,0.127,750.7,01.17,0.508
2014-03-13 03:11:00,5567E-2,5C000490,-0724,1376,6038,027.4,045.3,0.127,750.7,01.17,0.508
2014-03-13 03:12:00,5607E-2,5C000490,-0724,1376,6044,027.4,045.3,0.127,750.7,01.17,0.508
2014-03-13 03:13:00,5600E-2,5C000490,-0724,1376,6071,027.5,045.3,0.127,750.7,01.17,0.508
2014-03-13 03:14:00,5541E-2,5C000490,-0724,1376,6019,027.5,045.3,0.127,750.8,01.17,0.508
2014-03-13 03:15:00,5516E-2,5C000490,-0724,1376,5981,027.5,045.3,0.127,750.7,01.17,0.508
2014-03-13 03:16:00,5550E-2,5C000490,-0724,1376,5988,027.5,045.3,0.127,750.7,01.17,0.508
2014-03-13 03:17:00,5544E-2,5C000490,-0724,1376,6028,027.5,045.3,0.127,750.7,01.17,0.508
2014-03-13 03:18:00,5558E-2,5C000490,-0724,1376,5928,027.5,045.3,0.127,750.7,01.17,0.508
2014-03-13 03:19:00,5582E-2,5C000490,-0724,1376,6022,027.5,045.3,0.127,750.7,01.17,0.508
2014-03-13 03:20:00,5524E-2,5C000490,-0724,1376,6011,027.5,045.3,0.127,750.7,01.17,0.508
2014-03-13 03:21:00,5583E-2,5C000490,-0724,1376,5912,027.5,045.3,0.127,750.7,01.17,0.508
2014-03-13 03:22:00,5609E-2,5C000490,-0724,1376,5983,027.5,045.3,0.127,750.7,01.17,0.508
2014-03-13 03:23:00,5580E-2,5C000490,-0724,1376,5929,027.5,045.3,0.127,750.7,01.17,0.508
2014-03-13 03:24:00,5583E-2,5C000490,-0724,1376,5812,027.5,045.3,0.127,750.7,01.17,0.508
2014-03-13 03:25:00,5563E-2,5C000490,-0724,1376,5867,027.5,045.3,0.127,750.6,01.17,0.508
2014-03-13 03:26:00,5538E-2,5C000490,-0724,1376,5961,027.5,045.3,0.127,750.6,01.17,0.508
2014-03-13 03:27:00,5613E-2,5C000490,-0724,1376,5836,027.5,045.3,0.127,750.7,01.17,0.508
2014-03-13 03:28:00,5584E-2,5C000490,-0724,1376,5777,027.5,045.3,0.127,750.7,01.17,0.508
2014-03-13 03:29:00,5518E-2,5C000490,-0724,1376,5793,027.5,045.3,0.127,750.6,01.17,0.508
2014-03-13 03:30:00,5566E-2,5C000490,-0724,1376,5836,027.6,045.3,0.127,750.6,01.17,0.508
2014-03-13 03:31:00,5542E-2,5C000490,-0724,1376,5848,027.6,045.3,0.127,750.6,01.17,0.508
2014-03-13 03:32:00,5542E-2,5C000490,-0724,1376,5773,027.6,045.3,0.127,750.6,01.17,0.508
2014-03-13 03:33:00,5593E-2,5C000490,-0724,1376,5827,027.6,045.3,0.127,750.6,01.17,0.508
2014-03-13 03:34:00,5587E-2,5C000490,-0724,1376,5827,027.6,045.3,0.127,750.7,01.17,0.508
2014-03-13 03:35:00,5543E-2,5C000490,-0724,1376,5809,027.6,045.3,0.127,750.7,01.17,0.508
2014-03-13 03:36:00,5557E-2,5C000490,-0724,1376,5813,027.6,045.3,0.126,750.6,01.17,0.508
2014-03-13 03:37:00,5572E-2,5C000490,-0724,1376,5746,027.6,045.3,0.126,750.6,01.17,0.508
2014-03-13 03:38:00,5540E-2,5C000490,-0724,1376,5764,027.6,045.3,0.126,750.6,01.17,0.508
2014-03-13 03:39:00,5573E-2,5C000490,-0724,1376,5738,027.6,045.3,0.126,750.6,01.17,0.508
2014-03-13 03:40:00,5604E-2,5C000490,-0724,1376,5788,027.6,045.3,0.126,750.6,01.17,0.508
2014-03-13 03:41:00,5599E-2,5C000490,-0724,1376,5736,027.6,045.3,0.126,750.5,01.17,0.508
2014-03-13 03:42:00,5559E-2,5C000490,-0724,1376,5663,027.6,045.3,0.126,750.5,01.17,0.508
2014-03-13 03:43:00,5619E-2,5C000490,-0724,1376,5759,027.5,045.3,0.126,750.5,01.17,0.508
2014-03-13 03:44:00,5563E-2,5C000490,-0724,1376,5846,027.4,045.3,0.127,750.6,01.17,0.508
2014-03-13 03:45:00,5528E-2,5C000490,-0724,1376,5742,027.2,045.3,0.127,750.6,01.17,0.508
2014-03-13 03:46:00,5615E-2,5C000490,-0724,1376,5785,027.1,045.3,0.127,750.6,01.17,0.508
2014-03-13 03:47:00,5596E-2,5C000490,-0724,1376,5768,027.0,045.3,0.127,750.6,01.17,0.508
2014-03-13 03:48:00,5526E-2,5C000490,-0724,1376,5760,026.9,045.3,0.127,750.6,01.17,0.508
2014-03-13 03:49:00,5547E-2,5C000490,-0724,1376,5712,026.7,045.3,0.128,750.7,01.17,0.508
2014-03-13 03:50:00,5611E-2,5C000490,-0724,1376,5687,026.6,045.2,0.128,750.7,01.17,0.508
2014-03-13 03:51:00,5580E-2,5C000490,-0724,1376,5751,026.5,045.2,0.128,750.7,01.17,0.508
2014-03-13 03:52:00,5682E-2,5C000490,-0724,1375,5653,026.4,045.2,0.129,750.6,01.17,0.508
2014-03-13 03:53:00,5595E-2,5C000490,-0724,1375,5612,026.2,045.2,0.129,750.7,01.17,0.508
2014-03-13 03:54:00,5556E-2,5C000490,-0724,1375,5689,026.1,045.2,0.130,750.6,01.17,0.508
2014-03-13 03:55:00,5611E-2,5C000490,-0724,1375,5730,026.0,045.2,0.130,750.6,01.17,0.508
2014-03-13 03:56:00,5573E-2,5C000490,-0724,1375,5776,025.9,045.2,0.130,750.7,01.17,0.508
2014-03-13 03:57:00,5606E-2,5C000490,-0724,1375,5700,025.8,045.3,0.131,750.7,01.17,0.508
2014-03-13 03:58:00,5584E-2,5C000490,-0724,1375,5648,025.7,045.2,0.131,750.6,01.17,0.508
2014-03-13 03:59:00,5612E-2,5C000490,-0724,1375,5705,025.6,045.2,0.132,750.6,01.17,0.508
2014-03-13 04:00:00,5606E-2,5C000490,-0724,1375,5678,025.6,045.2,0.132,750.5,01.17,0.508
2014-03-13 04:01:00,5537E-2,5C000490,-0724,1375,5653,025.6,045.2,0.132,750.6,01.17,0.508
2014-03-13 04:02:00,5573E-2,5C000490,-0724,1375,5719,025.6,045.2,0.133,750.6,01.17,0.508
2014-03-13 04:03:00,5654E-2,5C000490,-0724,1375,5679,025.6,045.2,0.133,750.5,01.17,0.508
2014-03-13 04:04:00,5631E-2,5C000490,-0724,1375,5627,025.7,045.3,0.133,750.5,01.17,0.508
2014-03-13 04:05:00,5577E-2,5C000490,-0724,1375,5666,025.8,045.2,0.133,750.4,01.17,0.508
2014-03-13 04:06:00,5577E-2,5C000490,-0724,1376,5620,025.9,045.3,0.134,750.4,01.17,0.508
2014-03-13 04:07:00,5668E-2,5C000490,-0724,1376,5627,026.0,045.2,0.133,750.4,01.17,0.508
2014-03-13 04:08:00,5651E-2,5C000490,-0724,1376,5630,026.1,045.3,0.133,750.4,01.17,0.508
2014-03-13 04:09:00,5629E-2,5C000490,-0724,1376,5661,026.2,045.2,0.133,750.4,01.17,0.508
2014-03-13 04:10:00,5633E-2,5C000490,-0724,1376,5683,026.3,045.2,0.133,750.3,01.17,0.508
2014-03-13 04:11:00,5659E-2,5C000490,-0724,1376,5671,026.4,045.3,0.133,750.3,01.17,0.508
2014-03-13 04:12:00,5589E-2,5C000490,-0724,1376,5668,026.5,045.3,0.133,750.3,01.17,0.508
2014-03-13 04:13:00,5607E-2,5C000490,-0724,1376,5583,026.6,045.3,0.132,750.3,01.17,0.508
2014-03-13 04:14:00,5687E-2,5C000490,-0724,1376,5634,026.7,045.3,0.132,750.3,01.17,0.508
2014-03-13 04:15:00,5679E-2,5C000490,-0724,1376,5574,027.0,045.3,0.132,750.3,01.17,0.508
2014-03-13 04:16:00,5654E-2,5C000490,-0724,1376,5535,027.3,045.3,0.131,750.2,01.17,0.508
2014-03-13 04:17:00,5713E-2,5C000490,-0724,1376,5595,027.5,045.3,0.131,750.1,01.17,0.508
2014-03-13 04:18:00,5660E-2,5C000490,-0724,1376,5519,027.7,045.3,0.130,750.1,01.17,0.508
2014-03-13 04:19:00,5680E-2,5C000490,-0724,1376,5519,027.9,045.3,0.130,750.1,01.17,0.508
2014-03-13 04:20:00,5689E-2,5C000490,-0724,1376,5560,028.0,045.3,0.129,750.1,01.17,0.508
2014-03-13 04:21:00,5716E-2,5C000490,-0724,1376,5484,028.1,045.3,0.128,750.1,01.17,0.508
2014-03-13 04:22:00,5639E-2,5C000490,-0724,1376,5498,028.2,045.3,0.128,750.1,01.17,0.508